TimeCST,TemperatureF,Dew PointF,Humidity,Sea Level PressureIn,VisibilityMPH,Wind Direction,Wind SpeedMPH,Gust SpeedMPH,PrecipitationIn,Events,Conditions,WindDirDegrees,DateUTC
12:53 AM,-8.0,-13.0,79,30.19,10.0,NNW,9.2,-,N/A,,Overcast,340,2013-12-15 06:53:00
1:53 AM,-8.0,-11.9,83,30.20,10.0,NNW,10.4,-,N/A,,Overcast,340,2013-12-15 07:53:00
2:53 AM,-8.0,-11.9,83,30.22,10.0,NNW,6.9,-,N/A,,Overcast,340,2013-12-15 08:53:00
3:53 AM,-9.0,-13.0,83,30.22,10.0,NNW,8.1,-,N/A,,Overcast,330,2013-12-15 09:53:00
4:53 AM,-14.1,-18.0,82,30.22,10.0,NNW,6.9,-,N/A,,Clear,330,2013-12-15 10:53:00
5:53 AM,-15.0,-18.0,86,30.23,10.0,NNW,4.6,-,N/A,,Clear,330,2013-12-15 11:53:00
6:53 AM,-18.9,-20.9,91,30.24,10.0,NNW,4.6,-,N/A,,Clear,330,2013-12-15 12:53:00
7:53 AM,-23.1,-25.1,90,30.25,10.0,NW,5.8,-,N/A,,Clear,320,2013-12-15 13:53:00
8:53 AM,-23.1,-25.1,90,30.27,10.0,WNW,4.6,-,N/A,,Clear,300,2013-12-15 14:53:00
9:53 AM,-13.0,-18.9,75,30.25,9.0,North,8.1,-,0.00,Snow,Light Snow,10,2013-12-15 15:53:00
10:53 AM,-14.1,-18.0,82,30.27,9.0,Calm,Calm,-,0.00,,Clear,0,2013-12-15 16:53:00
11:53 AM,-9.0,-18.0,65,30.22,9.0,NNE,3.5,-,0.00,Snow,Light Snow,30,2013-12-15 17:53:00
12:53 PM,-8.0,-16.1,68,30.20,10.0,Calm,Calm,-,0.00,,Clear,0,2013-12-15 18:53:00
1:53 PM,-8.0,-16.1,68,30.18,10.0,Calm,Calm,-,N/A,,Clear,0,2013-12-15 19:53:00
2:53 PM,-7.1,-17.0,62,30.18,10.0,Calm,Calm,-,N/A,,Clear,0,2013-12-15 20:53:00
3:53 PM,-9.9,-18.0,68,30.19,10.0,Calm,Calm,-,N/A,,Clear,0,2013-12-15 21:53:00
4:53 PM,-5.1,-14.1,65,30.18,10.0,Calm,Calm,-,N/A,,Overcast,0,2013-12-15 22:53:00
5:53 PM,-5.1,-13.0,69,30.17,10.0,ESE,4.6,-,N/A,,Overcast,120,2013-12-15 23:53:00
6:53 PM,-8.0,-14.1,75,30.19,10.0,SE,3.5,-,N/A,,Mostly Cloudy,130,2013-12-16 00:53:00
7:53 PM,-5.1,-13.0,69,30.20,10.0,SE,3.5,-,N/A,,Overcast,130,2013-12-16 01:53:00
8:53 PM,-5.1,-13.0,69,30.16,10.0,SE,9.2,-,N/A,,Overcast,130,2013-12-16 02:53:00
9:53 PM,-4.0,-11.9,69,30.16,10.0,SE,8.1,-,N/A,,Overcast,140,2013-12-16 03:53:00
10:53 PM,-4.0,-11.0,72,30.14,10.0,SE,9.2,-,N/A,,Overcast,140,2013-12-16 04:53:00
11:53 PM,-2.9,-11.0,68,30.12,10.0,SSE,10.4,-,N/A,,Overcast,150,2013-12-16 05:53:00